Overview Statistics Trail Chart Weather Telemetry Raw packets
 

This is the latest recevied weather packets stored in our database for station/object VE6HFD-WX. If no packets are shown the sender has not sent any weather packets the latest 10 day(s).

<< 9 10 11 12 13 14 15 >>
Time Temp. Humidity Pressure Rain* Wind** Luminosity Snow
1788548980 18.33° C 58% 1009.1 hPa 0 mm - - -
1788548680 18.33° C 58% 1009.2 hPa 0 mm - - -
1788548380 18.33° C 60% 1009.3 hPa 0 mm - - -
1788548080 17.78° C 60% 1009.5 hPa 0 mm - - -
1788547750 17.78° C 62% 1009.4 hPa 0 mm - - -
1788547450 17.78° C 64% 1009.3 hPa 0 mm - - -
1788547120 16.67° C 67% 1009.5 hPa 0 mm - - -
1788546820 16.67° C 68% 1009.5 hPa 0 mm - - -
1788546520 16.11° C 68% 1009.3 hPa 0 mm - - -
1788546190 16.11° C 69% 1008.7 hPa 0 mm - - -
1788545860 15.56° C 70% 1008.5 hPa 0 mm - - -
1788545560 15° C 70% 1008.3 hPa 0 mm - - -
1788545230 15° C 71% 1008.3 hPa 0 mm - - -
1788544930 15° C 71% 1007.9 hPa 0 mm - - -
1788544625 15° C 72% 1008.4 hPa 0 mm - - -
1788544300 14.44° C 73% 1008.6 hPa 0 mm - - -
1788544000 14.44° C 73% 1008.6 hPa 0 mm - - -
1788543670 14.44° C 73% 1009 hPa 0 mm - - -
1788543370 14.44° C 72% 1009.3 hPa 0 mm - - -
1788543040 14.44° C 70% 1009.6 hPa 0 mm - - -
1788542710 14.44° C 69% 1009.6 hPa 0 mm - - -
1788542380 14.44° C 69% 1009.7 hPa 0 mm - - -
1788542050 14.44° C 69% 1009.7 hPa 0 mm - - -
1788541750 14.44° C 69% 1009.8 hPa 0 mm - - -
1788541420 14.44° C 68% 1009.7 hPa 0 mm - - -

* Rain latest hour (hover to see other rain measurements)
** Current wind speed in m/s (hover to see current wind gust speed)